Glenwood, MN

8:46 PM CDT on March 22, 2017 (GMT -0500)
Glenwood Municipal

Weather History for KGHW - May, 2013

Change the Weather History Date:

Tuesday, May 7, 2013

  Actual Average Record
Temperature  
Mean Temperature 60 °F -  
Max Temperature 75 °F 67 °F 89 °F (1990)
Min Temperature 44 °F 42 °F 29 °F (1954)
Degree Days  
Heating Degree Days 6    
Growing Degree Days 10 (Base 50)    
Moisture  
Dew Point 43 °F    
Average Humidity 55    
Maximum Humidity 100    
Minimum Humidity 25    
Precipitation  
Precipitation 0.00 in - - ()
Sea Level Pressure  
Sea Level Pressure 30.02 in    
Wind  
Wind Speed 3 mph (SSE)    
Max Wind Speed 15 mph    
Max Gust Speed 20 mph    
Visibility 9 miles    
Events      
Averages and records for this station are not official NWS values.
T = Trace of Precipitation, MM = Missing Value Source: NWS Daily Summary

Daily Weather History Graph

Daily Weather History Graph

Search for Another Location

Airport or City:

Trip Planner

Search our weather history database for the weather conditions in past years. The results will help you decide how hot, cold, wet, or windy it might be!

Date:

Astronomy

May. 07, 2013 Rise Set
Actual Time 6:00 AM CDT 8:36 PM CDT
Civil Twilight 5:26 AM CDT 9:10 PM CDT
Nautical Twilight 4:44 AM CDT 9:52 PM CDT
Astronomical Twilight 3:55 AM CDT 10:41 PM CDT
Moon 4:41 AM CDT (5/7) 6:31 PM CDT (5/7)
Length of Visible Light 15h 43m
Length of Day
14h 36m
Waning Crescent, 5% of the Moon is Illuminated
May 7
Waning Crescent
May 9
New
May 17
First Quarter
May 24
Full
May 31
Last Quarter

Hourly Weather History & Observations

Time (CDT) Temp. Windchill Dew Point Humidity Pressure Visibility Wind Dir Wind Speed Gust Speed Precip Events Conditions
12:13 AM 55.4 °F - 46.4 °F 72% 30.06 in 10.0 mi Calm Calm - N/A   Clear
12:33 AM 53.6 °F - 46.4 °F 77% 30.06 in 10.0 mi Calm Calm - N/A   Clear
12:54 AM 51.8 °F - 46.4 °F 82% 30.06 in 10.0 mi Calm Calm - N/A   Clear
1:13 AM 51.8 °F - 46.4 °F 82% 30.06 in 10.0 mi Calm Calm - N/A   Clear
1:33 AM 51.8 °F - 46.4 °F 82% 30.06 in 10.0 mi Calm Calm - N/A   Clear
1:53 AM 51.8 °F - 46.4 °F 82% 30.06 in 10.0 mi Calm Calm - N/A   Clear
2:13 AM 51.8 °F - 46.4 °F 82% 30.06 in 10.0 mi South 3.5 mph - N/A   Clear
2:33 AM 50.0 °F - 46.4 °F 87% 30.06 in 10.0 mi Calm Calm - N/A   Clear
3:13 AM 50.0 °F - 46.4 °F 87% 30.05 in 10.0 mi Calm Calm - N/A   Clear
3:33 AM 48.2 °F - 46.4 °F 93% 30.05 in 7.0 mi Calm Calm - N/A   Clear
3:53 AM 46.4 °F 45.2 °F 44.6 °F 93% 30.05 in 7.0 mi East 3.5 mph - N/A   Clear
4:13 AM 46.4 °F 44.3 °F 42.8 °F 87% 30.05 in 7.0 mi ENE 4.6 mph - N/A   Clear
4:34 AM 46.4 °F 43.5 °F 44.6 °F 93% 30.05 in 7.0 mi East 5.8 mph - N/A   Clear
4:53 AM 46.4 °F 44.3 °F 44.6 °F 93% 30.05 in 7.0 mi East 4.6 mph - N/A   Clear
5:13 AM 48.2 °F - 46.4 °F 93% 30.05 in 7.0 mi East 4.6 mph - N/A   Clear
5:34 AM 46.4 °F - 46.4 °F 100% 30.05 in 7.0 mi Calm Calm - N/A   Clear
5:53 AM 48.2 °F - 46.4 °F 93% 30.06 in 7.0 mi Calm Calm - N/A   Clear
6:13 AM 46.4 °F - 44.6 °F 93% 30.06 in 4.0 mi Calm Calm - N/A   Clear
6:34 AM 44.6 °F - 44.6 °F 100% 30.06 in 2.5 mi Calm Calm - N/A   Clear
6:53 AM 46.4 °F - 44.6 °F 93% 30.07 in 3.0 mi Calm Calm - N/A   Clear
7:13 AM 46.4 °F 45.2 °F 46.4 °F 100% 30.07 in 3.0 mi SSE 3.5 mph - N/A   Clear
7:34 AM 50.0 °F - 46.4 °F 87% 30.07 in 5.0 mi Calm Calm - N/A   Clear
7:53 AM 51.8 °F - 48.2 °F 88% 30.07 in 7.0 mi Calm Calm - N/A   Clear
8:13 AM 55.4 °F - 48.2 °F 77% 30.07 in 7.0 mi Calm Calm - N/A   Clear
8:34 AM 57.2 °F - 48.2 °F 72% 30.07 in 10.0 mi Calm Calm - N/A   Clear
8:53 AM 59.0 °F - 46.4 °F 63% 30.07 in 10.0 mi Calm Calm - N/A   Clear
9:13 AM 62.6 °F - 46.4 °F 55% 30.07 in 10.0 mi SSE 4.6 mph - N/A   Clear
9:34 AM 62.6 °F - 48.2 °F 59% 30.07 in 10.0 mi SSE 4.6 mph - N/A   Clear
9:53 AM 64.4 °F - 48.2 °F 56% 30.07 in 10.0 mi South 6.9 mph - N/A   Clear
10:13 AM 66.2 °F - 48.2 °F 52% 30.07 in 10.0 mi South 9.2 mph - N/A   Clear
10:34 AM 66.2 °F - 48.2 °F 52% 30.06 in 10.0 mi South 11.5 mph 17.3 mph N/A   Clear
10:53 AM 68.0 °F - 48.2 °F 49% 30.06 in 10.0 mi South 13.8 mph - N/A   Clear
11:13 AM 68.0 °F - 48.2 °F 49% 30.06 in 10.0 mi South 12.7 mph 19.6 mph N/A   Clear
11:34 AM 69.8 °F - 46.4 °F 43% 30.05 in 10.0 mi SSE 15.0 mph 18.4 mph N/A   Clear
11:53 AM 69.8 °F - 46.4 °F 43% 30.05 in 10.0 mi South 10.4 mph 18.4 mph N/A   Clear
12:13 PM 71.6 °F - 46.4 °F 41% 30.04 in 10.0 mi SSE 12.7 mph - N/A   Clear
12:53 PM 71.6 °F - 44.6 °F 38% 30.03 in 10.0 mi South 12.7 mph 19.6 mph N/A   Clear
1:13 PM 73.4 °F - 44.6 °F 36% 30.03 in 10.0 mi South 11.5 mph 18.4 mph N/A   Scattered Clouds
1:33 PM 73.4 °F - 42.8 °F 33% 30.02 in 10.0 mi SSE 9.2 mph 17.3 mph N/A   Clear
1:53 PM 73.4 °F - 42.8 °F 33% 30.02 in 10.0 mi South 5.8 mph - N/A   Clear
2:13 PM 73.4 °F - 42.8 °F 33% 30.01 in 10.0 mi South 11.5 mph - N/A   Clear
2:33 PM 73.4 °F - 41.0 °F 31% 30.01 in 10.0 mi South 5.8 mph - N/A   Clear
2:53 PM 73.4 °F - 41.0 °F 31% 30.00 in 10.0 mi Calm Calm - N/A   Clear
3:14 PM 75.2 °F - 41.0 °F 29% 29.99 in 10.0 mi SSE 6.9 mph 16.1 mph N/A   Clear
3:33 PM 75.2 °F - 39.2 °F 27% 29.99 in 10.0 mi SSE 5.8 mph - N/A   Clear
3:53 PM 75.2 °F - 41.0 °F 29% 29.99 in 10.0 mi SSE 5.8 mph - N/A   Clear
4:14 PM 75.2 °F - 39.2 °F 27% 29.98 in 10.0 mi SSE 4.6 mph - N/A   Clear
4:33 PM 75.2 °F - 39.2 °F 27% 29.98 in 10.0 mi South 8.1 mph - N/A   Clear
4:53 PM 75.2 °F - 37.4 °F 25% 29.97 in 10.0 mi SSW 11.5 mph - N/A   Clear
5:14 PM 75.2 °F - 37.4 °F 25% 29.97 in 10.0 mi South 8.1 mph - N/A   Clear
5:33 PM 75.2 °F - 37.4 °F 25% 29.97 in 10.0 mi South 5.8 mph - N/A   Clear
5:53 PM 75.2 °F - 37.4 °F 25% 29.96 in 10.0 mi Calm Calm - N/A   Scattered Clouds
6:14 PM 75.2 °F - 37.4 °F 25% 29.96 in 10.0 mi WSW 6.9 mph - N/A   Scattered Clouds
6:33 PM 75.2 °F - 37.4 °F 25% 29.95 in 10.0 mi Calm Calm - N/A   Clear
6:53 PM 75.2 °F - 37.4 °F 25% 29.95 in 10.0 mi SSE 4.6 mph - N/A   Clear
7:14 PM 73.4 °F - 37.4 °F 27% 29.95 in 10.0 mi SSE 6.9 mph - N/A   Clear
7:33 PM 71.6 °F - 37.4 °F 29% 29.95 in 10.0 mi South 3.5 mph - N/A   Clear
7:53 PM 71.6 °F - 37.4 °F 29% 29.95 in 10.0 mi SSE 3.5 mph - N/A   Clear
8:13 PM 68.0 °F - 39.2 °F 35% 29.95 in 10.0 mi SE 5.8 mph - N/A   Clear
8:33 PM 66.2 °F - 37.4 °F 35% 29.95 in 10.0 mi SE 5.8 mph - N/A   Clear
8:53 PM 66.2 °F - 37.4 °F 35% 29.96 in 10.0 mi SE 4.6 mph - N/A   Clear
9:13 PM 64.4 °F - 39.2 °F 40% 29.96 in 10.0 mi SE 3.5 mph - N/A   Clear
9:33 PM 64.4 °F - 39.2 °F 40% 29.96 in 10.0 mi SE 4.6 mph - N/A   Scattered Clouds
9:53 PM 62.6 °F - 41.0 °F 45% 29.96 in 10.0 mi ESE 5.8 mph - N/A   Scattered Clouds
10:13 PM 62.6 °F - 39.2 °F 42% 29.97 in 10.0 mi South 3.5 mph - N/A   Clear
10:33 PM 64.4 °F - 39.2 °F 40% 29.97 in 10.0 mi South 3.5 mph - N/A   Clear
10:54 PM 64.4 °F - 39.2 °F 40% 29.97 in 10.0 mi SSE 4.6 mph - N/A   Clear
11:13 PM 64.4 °F - 39.2 °F 40% 29.96 in 10.0 mi SE 3.5 mph - N/A   Scattered Clouds
11:33 PM 62.6 °F - 41.0 °F 45% 29.96 in 10.0 mi Calm Calm - N/A   Scattered Clouds
11:54 PM 62.6 °F - 39.2 °F 42% 29.96 in 10.0 mi SE 3.5 mph - N/A   Clear